�N����,����,�~����,�C��,���x,�C��,����,���ϕ���,�ő�u�ԕ���,�ő厞����,���˗�,�I�_���x,�n�����x,�ő啗���N��,DTYPE
"23/10/08","00:10",0.0,15.1,78.3,1016.6,317.3,1.2,1.9,298.1,0.00,11.4,18.9,"00:00:18",1
"23/10/08","00:20",0.0,15.0,78.7,1016.8,302.2,1.0,1.6,325.4,0.00,11.4,18.9,"00:12:42",1
"23/10/08","00:30",0.0,14.8,79.4,1016.8,305.9,0.8,1.6,324.2,0.00,11.3,19.0,"00:22:44",1
"23/10/08","00:40",0.0,14.6,80.6,1016.8,302.8,0.7,1.4,312.7,0.00,11.3,18.7,"00:39:58",1
"23/10/08","00:50",0.0,14.6,81.5,1016.6,300.9,1.1,1.4,316.2,0.00,11.5,18.8,"00:41:38",1
"23/10/08","01:00",0.0,14.5,82.0,1016.6,312.6,1.2,2.0,337.9,0.00,11.5,18.8,"00:58:18",1
"23/10/08","01:10",0.0,14.6,82.0,1016.6,317.9,1.6,2.7,350.2,0.00,11.6,18.7,"01:04:56",1
"23/10/08","01:20",0.0,14.9,81.3,1017.1,309.7,1.5,2.4,334.8,0.00,11.8,18.7,"01:11:34",1
"23/10/08","01:30",0.0,15.0,80.9,1017.1,309.0,1.1,2.0,329.2,0.00,11.8,18.7,"01:25:34",1
"23/10/08","01:40",0.0,15.0,80.6,1016.8,323.1,1.3,1.8,343.7,0.00,11.7,18.7,"01:35:24",1
"23/10/08","01:50",0.0,15.1,80.2,1017.1,311.0,1.5,2.0,335.2,0.00,11.8,18.5,"01:41:22",1
"23/10/08","02:00",0.0,15.1,80.0,1017.1,318.5,1.3,2.0,309.4,0.00,11.7,18.6,"01:50:48",1
"23/10/08","02:10",0.0,15.1,79.9,1017.1,317.2,1.5,2.5,321.7,0.00,11.7,18.7,"02:06:12",1
"23/10/08","02:20",0.0,15.2,79.8,1016.8,304.7,1.1,1.7,323.4,0.00,11.8,18.7,"02:10:32",1
"23/10/08","02:30",0.0,15.1,80.0,1016.8,290.8,1.1,1.4,312.9,0.00,11.7,18.6,"02:21:54",1
"23/10/08","02:40",0.0,15.1,80.6,1016.8,317.8,1.7,2.4,332.1,0.00,11.8,18.6,"02:37:22",1
"23/10/08","02:50",0.0,15.1,80.6,1016.8,323.2,1.5,2.1,323.4,0.00,11.8,18.6,"02:41:32",1
"23/10/08","03:00",0.0,15.0,80.6,1016.4,293.6,0.8,1.4,306.7,0.00,11.7,18.6,"02:50:08",1
"23/10/08","03:10",0.0,14.7,81.0,1016.6,282.0,0.3,0.9,297.0,0.00,11.5,18.5,"03:06:50",1
"23/10/08","03:20",0.0,14.7,81.5,1016.8,299.7,1.1,1.6,321.8,0.00,11.6,18.6,"03:12:40",1
"23/10/08","03:30",0.0,14.7,82.3,1016.8,299.3,1.2,1.9,320.0,0.00,11.8,18.7,"03:25:16",1
"23/10/08","03:40",0.0,14.7,82.8,1017.1,282.3,1.0,1.1,270.7,0.00,11.8,18.5,"03:34:02",1
"23/10/08","03:50",0.0,14.6,83.5,1017.3,304.0,1.3,1.9,303.0,0.00,11.9,18.6,"03:46:44",1
"23/10/08","04:00",0.0,14.5,84.0,1016.8,307.8,1.3,2.0,312.8,0.00,11.9,18.6,"03:50:28",1
"23/10/08","04:10",0.0,14.6,84.5,1016.8,327.9,1.1,1.8,329.8,0.00,12.1,18.4,"04:03:42",1
"23/10/08","04:20",0.0,14.5,84.9,1017.1,277.3,0.8,1.7,319.7,0.00,12.0,18.4,"04:11:48",1
"23/10/08","04:30",0.0,14.3,85.3,1017.3,291.0,1.1,1.8,317.7,0.00,11.9,18.7,"04:20:02",1
"23/10/08","04:40",0.0,14.3,85.5,1017.1,299.0,1.0,1.9,321.9,0.00,11.9,18.4,"04:31:24",1
"23/10/08","04:50",0.0,14.2,85.8,1017.3,309.1,1.2,1.8,317.4,0.00,11.9,18.4,"04:43:36",1
"23/10/08","05:00",0.0,14.1,86.2,1017.3,277.7,0.7,1.0,318.1,0.00,11.9,18.5,"04:50:32",1
"23/10/08","05:10",0.0,14.1,86.6,1017.3,315.0,1.1,1.6,325.5,0.00,11.9,18.5,"05:02:24",1
"23/10/08","05:20",0.0,14.0,86.9,1017.3,285.5,0.7,1.2,317.6,0.00,11.9,18.4,"05:10:24",1
"23/10/08","05:30",0.0,14.0,87.1,1017.5,301.9,1.0,1.4,316.0,0.00,11.9,18.3,"05:28:32",1
"23/10/08","05:40",0.0,13.8,87.5,1017.3,292.0,1.0,1.1,304.1,0.00,11.8,18.5,"05:32:48",1
"23/10/08","05:50",0.0,14.0,88.0,1017.5,294.7,1.1,2.0,330.7,0.00,12.1,18.5,"05:48:08",1
"23/10/08","06:00",0.0,14.0,88.2,1017.3,302.4,1.0,1.3,320.1,0.00,12.1,18.3,"05:50:40",1
"23/10/08","06:10",0.0,13.9,88.5,1017.1,293.0,0.8,1.1,309.5,0.00,12.1,18.4,"06:07:28",1
"23/10/08","06:20",0.0,14.0,88.7,1017.5,284.3,0.5,1.0,307.8,0.00,12.2,18.3,"06:10:02",1
"23/10/08","06:30",0.0,14.0,89.0,1017.3,300.4,1.1,1.4,310.0,0.00,12.3,18.3,"06:27:36",1
"23/10/08","06:40",0.0,14.2,89.2,1017.3,310.1,1.5,2.5,300.5,0.00,12.5,18.5,"06:32:32",1
"23/10/08","06:50",0.0,14.5,89.3,1017.3,301.4,1.0,1.6,319.6,0.01,12.8,18.4,"06:40:58",1
"23/10/08","07:00",0.0,14.8,89.4,1017.5,293.1,1.0,1.4,315.5,0.01,13.1,18.3,"06:58:32",1
"23/10/08","07:10",0.0,15.1,89.4,1017.3,280.4,0.8,1.1,278.0,0.01,13.4,18.3,"07:08:28",1
"23/10/08","07:20",0.0,15.2,89.5,1017.5,296.4,1.2,1.4,315.4,0.02,13.5,18.4,"07:17:08",1
"23/10/08","07:30",0.0,15.5,89.2,1017.5,298.2,1.2,1.7,313.8,0.02,13.8,18.3,"07:28:50",1
"23/10/08","07:40",0.0,15.5,88.9,1017.5,297.8,1.2,2.0,319.4,0.02,13.7,18.4,"07:35:36",1
"23/10/08","07:50",0.0,15.7,87.9,1018.0,295.4,1.3,2.5,330.9,0.02,13.7,18.3,"07:45:44",1
"23/10/08","08:00",0.0,15.8,86.7,1018.0,311.5,1.6,2.7,305.5,0.02,13.6,18.3,"07:55:36",1
"23/10/08","08:10",0.0,16.1,85.3,1017.5,310.3,1.3,2.4,326.1,0.01,13.7,18.2,"08:09:44",1
"23/10/08","08:20",0.0,16.5,84.3,1018.0,315.5,1.0,1.9,325.8,0.03,13.9,18.4,"08:10:08",1
"23/10/08","08:30",0.0,16.8,83.5,1017.8,312.1,1.0,1.8,322.1,0.03,14.0,18.4,"08:26:40",1
"23/10/08","08:40",0.0,16.7,82.9,1018.0,299.6,1.0,1.8,305.3,0.03,13.8,18.4,"08:38:32",1
"23/10/08","08:50",0.0,16.8,81.8,1018.7,298.9,1.2,1.9,332.5,0.02,13.7,18.2,"08:44:32",1
"23/10/08","09:00",0.0,16.9,81.0,1018.2,299.8,1.2,1.8,319.2,0.02,13.7,18.4,"08:58:32",1
"23/10/08","09:10",0.0,17.1,80.8,1018.5,293.6,1.1,1.9,308.6,0.03,13.8,18.2,"09:04:24",1
"23/10/08","09:20",0.0,17.2,80.3,1018.5,307.9,1.3,2.1,316.9,0.03,13.8,18.3,"09:18:08",1
"23/10/08","09:30",0.0,17.4,80.1,1018.0,297.0,1.0,1.6,324.6,0.03,14.0,18.6,"09:23:20",1
"23/10/08","09:40",0.0,17.4,79.6,1017.5,304.6,1.1,2.4,318.8,0.03,13.9,18.5,"09:33:36",1
"23/10/08","09:50",0.0,17.6,78.4,1018.2,297.5,1.1,2.2,326.2,0.06,13.8,18.4,"09:49:36",1
"23/10/08","10:00",0.0,18.0,77.1,1018.0,321.6,1.5,2.6,342.9,0.09,14.0,18.4,"09:50:08",1
"23/10/08","10:10",0.0,18.3,75.4,1018.2,319.3,1.2,1.8,323.6,0.09,13.9,18.4,"10:02:00",1
"23/10/08","10:20",0.0,18.8,73.0,1017.5,306.2,0.7,1.4,322.2,0.11,13.9,18.4,"10:10:08",1
"23/10/08","10:30",0.0,19.3,69.1,1017.5,283.8,0.5,1.3,271.6,0.11,13.5,18.6,"10:29:36",1
"23/10/08","10:40",0.0,19.8,67.2,1017.5,284.2,0.7,1.4,276.0,0.20,13.6,18.7,"10:30:32",1
"23/10/08","10:50",0.0,20.1,64.9,1017.5,321.0,1.1,2.2,333.4,0.12,13.3,18.7,"10:49:28",1
"23/10/08","11:00",0.0,20.0,66.3,1017.3,332.9,0.8,1.7,333.9,0.10,13.6,18.6,"10:50:24",1
"23/10/08","11:10",0.0,20.0,67.0,1017.1,314.4,0.6,2.2,326.3,0.11,13.7,18.8,"11:08:26",1
"23/10/08","11:20",0.0,20.2,65.8,1016.8,314.5,0.7,1.6,324.0,0.13,13.6,18.7,"11:12:56",1
"23/10/08","11:30",0.0,20.1,66.2,1017.1,269.2,0.7,1.4,307.4,0.11,13.6,18.5,"11:26:08",1
"23/10/08","11:40",0.0,20.4,67.2,1016.8,254.7,0.2,0.6,239.4,0.09,14.2,18.8,"11:36:16",1
"23/10/08","11:50",0.0,20.5,66.8,1016.8,283.6,0.5,1.3,260.3,0.09,14.2,18.9,"11:41:44",1
"23/10/08","12:00",0.0,20.4,64.1,1016.8,318.0,1.0,1.3,313.7,0.07,13.4,18.9,"11:54:24",1
"23/10/08","12:10",0.0,21.0,62.8,1016.4,323.5,0.7,2.1,345.3,0.14,13.7,18.8,"12:01:44",1
"23/10/08","12:20",0.0,21.3,61.9,1016.4,259.7,0.7,1.6,349.3,0.17,13.7,18.9,"12:18:48",1
"23/10/08","12:30",0.0,21.5,61.0,1015.9,350.5,0.5,2.0,81.8,0.11,13.7,19.1,"12:28:32",1
"23/10/08","12:40",0.0,21.0,61.3,1015.6,47.6,0.6,1.7,107.8,0.05,13.3,19.0,"12:32:32",1
"23/10/08","12:50",0.0,20.5,62.9,1016.4,178.9,1.0,2.6,149.1,0.03,13.2,19.1,"12:42:00",1
"23/10/08","13:00",0.0,20.1,65.5,1015.6,131.6,1.0,2.2,169.8,0.02,13.5,19.1,"12:59:36",1
"23/10/08","13:10",0.0,19.7,69.2,1016.1,161.1,1.1,2.6,103.2,0.02,13.9,19.2,"13:04:24",1
"23/10/08","13:20",0.0,19.3,71.9,1016.1,173.4,0.7,1.8,174.8,0.05,14.1,19.1,"13:13:28",1
"23/10/08","13:30",0.0,19.0,73.5,1016.1,183.3,0.8,2.4,117.0,0.06,14.2,19.2,"13:26:32",1
"23/10/08","13:40",0.0,18.9,74.5,1016.1,90.0,0.6,1.6,150.7,0.04,14.3,19.4,"13:34:00",1
"23/10/08","13:50",0.2,18.9,76.1,1015.9,354.0,0.5,1.2,335.5,0.04,14.6,19.1,"13:47:36",1
"23/10/08","14:00",0.0,18.8,78.0,1016.4,332.6,0.6,1.4,325.4,0.03,14.9,19.1,"13:52:32",1
"23/10/08","14:10",0.2,18.6,80.0,1016.1,356.9,0.5,1.2,329.6,0.04,15.1,19.2,"14:02:40",1
"23/10/08","14:20",0.2,18.4,81.5,1016.1,338.7,0.6,1.3,336.6,0.06,15.2,19.3,"14:13:28",1
"23/10/08","14:30",0.0,18.2,82.9,1016.4,343.2,0.8,2.7,341.8,0.02,15.3,19.1,"14:21:28",1
"23/10/08","14:40",0.2,18.0,84.2,1016.6,328.7,0.7,1.7,350.4,0.02,15.3,19.2,"14:36:08",1
"23/10/08","14:50",0.4,17.8,85.5,1016.8,330.0,0.7,2.2,339.6,0.02,15.4,19.1,"14:43:20",1
"23/10/08","15:00",0.2,17.4,86.5,1016.8,26.3,0.7,1.4,58.1,0.02,15.2,19.4,"14:59:28",1
"23/10/08","15:10",0.4,17.2,87.4,1016.8,106.3,0.6,2.5,143.4,0.02,15.1,19.1,"15:02:00",1
"23/10/08","15:20",0.2,17.1,88.1,1016.6,329.9,0.6,1.1,321.7,0.02,15.2,19.2,"15:13:20",1
"23/10/08","15:30",0.0,17.1,88.8,1016.6,330.0,1.0,2.0,329.9,0.01,15.3,19.3,"15:22:48",1
"23/10/08","15:40",0.0,17.0,89.4,1016.4,322.4,1.0,2.0,311.4,0.01,15.3,19.2,"15:38:40",1
"23/10/08","15:50",0.2,16.9,89.8,1016.6,294.1,0.8,1.3,290.4,0.01,15.3,19.3,"15:42:16",1
"23/10/08","16:00",0.0,17.0,90.1,1016.8,310.1,0.8,1.6,316.6,0.00,15.4,19.2,"15:58:00",1
"23/10/08","16:10",0.0,17.0,90.6,1016.8,320.1,1.2,2.2,331.8,0.00,15.5,19.3,"16:02:16",1
"23/10/08","16:20",0.2,17.0,91.1,1016.8,314.3,0.8,1.9,336.9,0.00,15.6,19.1,"16:18:16",1
"23/10/08","16:30",0.2,16.7,91.5,1017.1,347.7,1.0,2.2,343.4,0.00,15.3,19.2,"16:20:08",1
"23/10/08","16:40",0.0,16.6,91.8,1017.1,341.0,0.8,3.3,92.7,0.00,15.3,19.2,"16:39:30",1
"23/10/08","16:50",0.0,16.4,92.3,1017.1,37.3,0.8,2.5,95.1,0.00,15.2,19.2,"16:42:16",1
"23/10/08","17:00",0.4,16.3,92.6,1017.3,305.7,0.6,1.7,42.7,0.00,15.1,19.3,"16:54:16",1
"23/10/08","17:10",0.2,16.3,92.8,1017.3,235.7,0.6,1.6,183.9,0.00,15.2,19.1,"17:07:56",1
"23/10/08","17:20",0.2,16.1,93.0,1016.8,279.8,0.7,1.7,159.9,0.00,15.0,19.1,"17:13:38",1
"23/10/08","17:30",0.2,16.1,93.3,1017.5,138.7,0.6,1.9,130.6,0.00,15.1,19.2,"17:28:08",1
"23/10/08","17:40",0.2,16.0,93.5,1016.8,6.3,0.5,1.6,81.0,0.00,15.0,19.1,"17:36:40",1
"23/10/08","17:50",0.6,16.0,93.7,1017.3,331.4,0.6,1.4,316.9,0.00,15.0,19.2,"17:42:48",1
"23/10/08","18:00",0.4,16.0,93.9,1017.5,336.4,0.6,1.2,308.8,0.00,15.1,19.1,"17:55:12",1
"23/10/08","18:10",0.0,15.9,94.1,1017.5,332.2,0.6,1.4,343.8,0.00,15.0,18.9,"18:09:20",1
"23/10/08","18:20",0.2,15.8,94.3,1017.5,323.2,1.0,2.1,347.2,0.00,14.9,18.9,"18:18:08",1
"23/10/08","18:30",0.2,15.7,94.4,1017.5,330.9,0.8,1.6,327.9,0.00,14.8,18.8,"18:21:36",1
"23/10/08","18:40",0.0,15.6,94.6,1017.8,336.1,0.7,1.3,349.9,0.00,14.8,19.0,"18:37:36",1
"23/10/08","18:50",0.0,15.6,94.8,1018.0,327.1,0.8,1.7,315.1,0.00,14.8,18.9,"18:45:12",1
"23/10/08","19:00",0.0,15.6,94.9,1018.0,339.7,1.0,1.7,336.9,0.00,14.8,18.9,"18:56:08",1
"23/10/08","19:10",0.0,15.6,95.0,1018.0,328.8,0.7,1.8,342.1,0.00,14.8,18.9,"19:03:04",1
"23/10/08","19:20",0.0,15.6,95.2,1017.8,353.7,1.1,2.9,346.6,0.00,14.9,18.9,"19:11:52",1
"23/10/08","19:30",0.0,15.7,95.2,1018.0,327.1,0.8,2.4,321.9,0.00,15.0,18.9,"19:25:04",1
"23/10/08","19:40",0.0,15.7,95.3,1017.8,315.5,0.7,1.4,327.3,0.00,15.0,19.1,"19:39:52",1
"23/10/08","19:50",0.0,15.7,95.4,1017.8,324.1,1.3,2.9,335.8,0.00,15.0,18.7,"19:49:12",1
"23/10/08","20:00",0.0,15.8,95.4,1017.5,309.1,0.7,2.4,213.8,0.00,15.1,18.8,"19:53:52",1
"23/10/08","20:10",0.0,15.8,95.5,1017.5,321.6,1.6,2.2,309.0,0.00,15.1,18.9,"20:09:28",1
"23/10/08","20:20",0.0,15.8,95.5,1017.5,315.8,1.1,1.8,345.8,0.00,15.1,19.1,"20:19:12",1
"23/10/08","20:30",0.2,15.7,95.6,1017.8,309.8,1.0,1.8,314.1,0.00,15.0,18.9,"20:28:48",1
"23/10/08","20:40",0.0,15.7,95.7,1018.0,296.2,1.0,1.9,312.3,0.00,15.1,19.0,"20:30:02",1
"23/10/08","20:50",0.0,15.7,95.7,1018.2,302.2,1.2,1.8,324.6,0.00,15.1,18.8,"20:40:08",1
"23/10/08","21:00",0.0,15.8,95.8,1018.0,316.5,1.2,2.9,312.3,0.00,15.2,19.0,"20:58:40",1
"23/10/08","21:10",0.0,15.8,95.9,1018.5,323.4,1.6,2.7,260.3,0.00,15.2,18.8,"21:01:12",1
"23/10/08","21:20",0.0,15.7,96.0,1018.0,319.6,1.6,2.5,333.9,0.00,15.1,18.7,"21:10:16",1
"23/10/08","21:30",0.0,15.7,96.1,1018.0,322.1,1.6,1.9,336.5,0.00,15.1,18.8,"21:20:32",1
"23/10/08","21:40",0.0,15.7,96.2,1018.0,342.2,0.7,1.6,333.0,0.00,15.1,18.8,"21:32:40",1
"23/10/08","21:50",0.0,15.9,96.2,1017.8,324.8,1.1,2.0,314.1,0.00,15.3,19.0,"21:45:36",1
"23/10/08","22:00",0.0,15.9,96.3,1017.8,325.5,1.2,2.6,322.4,0.00,15.4,18.9,"21:52:56",1
"23/10/08","22:10",0.0,15.9,96.3,1018.0,325.5,1.0,2.1,318.4,0.00,15.4,18.9,"22:02:40",1
"23/10/08","22:20",0.0,15.8,96.4,1017.8,325.3,1.0,2.1,325.4,0.00,15.3,18.9,"22:17:52",1
"23/10/08","22:30",0.0,15.6,96.4,1017.8,350.4,1.0,3.1,6.1,0.00,15.1,19.0,"22:28:40",1
"23/10/08","22:40",0.0,15.6,96.5,1017.8,337.9,1.0,1.9,42.3,0.00,15.1,18.9,"22:37:12",1
"23/10/08","22:50",0.0,15.6,96.5,1017.8,345.7,1.0,2.1,332.2,0.00,15.1,18.7,"22:43:12",1
"23/10/08","23:00",0.0,15.6,96.5,1017.5,321.1,1.1,2.0,304.1,0.00,15.1,19.0,"22:50:24",1
"23/10/08","23:10",0.0,15.6,96.5,1017.5,327.8,1.2,2.0,318.0,0.00,15.1,19.0,"23:01:12",1
"23/10/08","23:20",0.0,15.6,96.6,1017.3,321.8,1.2,1.8,306.9,0.00,15.1,18.8,"23:12:48",1
"23/10/08","23:30",0.0,15.6,96.5,1017.1,318.8,1.0,1.9,331.8,0.00,15.1,18.8,"23:23:12",1
"23/10/08","23:40",0.0,15.6,96.7,1017.1,315.8,1.6,2.6,325.2,0.00,15.1,18.7,"23:36:00",1
"23/10/08","23:50",0.0,15.6,96.6,1016.8,316.4,1.2,1.8,298.9,0.00,15.1,18.8,"23:40:08",1
"23/10/08","24:00",0.0,15.5,96.6,1016.8,284.0,0.7,1.7,311.7,0.00,15.0,18.9,"23:51:36",1
